Home   Weather   Riverview   Past weeks
Flag for Canada

Past Weather in Riverview, New Brunswick, Canada — Yesterday and Last 2 Weeks

Now
66 °F

Partly cloudy.


Feels Like: 66 °F
Forecast: 77 / 56 °F
Wind: 10 mph from Northwest

Location: Moncton

Current Time: Jul 18, 2019 at 2:39:25 am

Latest Report: Jul 18, 2019 at 1:00 am


Visibility: 15 mi

Pressure: 29.82 "Hg

Humidity: 83%

Dew Point: 61 °F

Location of RiverviewLocation

Past Weather in Riverview — Graph

°F

Riverview Temperature Yesterday

Maximum temperature yesterday: 82 °F (at 1:00 pm)
Minimum temperature yesterday: 61 °F (at 6:00 am)
Average temperature yesterday: 71 °F

High & Low Weather Summary for the Past Weeks

 TemperatureHumidityPressure
High93 °F (Jul 5, 4:00 pm)100% (Jul 3, 1:00 am)30.12 "Hg (Jul 3, 1:00 am)
Low46 °F (Jul 11, 6:00 am)32% (Jul 8, 2:00 pm)29.62 "Hg (Jul 6, 5:11 pm)
Average67 °F79%29.85 "Hg
* Reported Jul 3 1:00 am — Jul 18 1:00 am, Riverview. Weather by CustomWeather, © 2019

Note: Actual official high and low records may vary slightly from our data, if they occured in-between our weather recording intervals... More about our weather records

Advertising

Riverview Weather History for the Previous 24 Hours

Scroll right to see more
 ConditionsComfort  
Time TempWeatherWind HumidityBarometerVisibility
1:00 am
Thu, Jul 18
66 °FPartly cloudy.10 mph83%29.82 "Hg15 mi
12:00 am68 °FPassing clouds.9 mph100%29.80 "Hg15 mi
11:00 pm
Wed, Jul 17
68 °FMostly cloudy.15 mph100%29.77 "Hg10 mi
10:00 pm70 °FLow clouds.14 mph100%29.74 "Hg8 mi
9:00 pm70 °FSprinkles. Mostly cloudy.13 mph100%29.74 "Hg8 mi
8:00 pm70 °FSprinkles. Broken clouds.7 mph100%29.74 "Hg10 mi
7:00 pm72 °FSprinkles. Partly sunny.7 mph100%29.73 "Hg10 mi
6:43 pm72 °FSprinkles. Mostly cloudy.6 mph100%29.73 "Hg10 mi
6:20 pm72 °FMostly cloudy.9 mph100%29.73 "Hg15 mi
6:02 pm72 °FSprinkles. Mostly cloudy.7 mph100%29.73 "Hg10 mi
5:00 pm72 °FSprinkles. Fog.12 mph100%29.75 "Hg5 mi
4:39 pm73 °FRain showers. Fog.15 mph100%29.76 "Hg5 mi
4:00 pm73 °FSprinkles. Cloudy.12 mph100%29.76 "Hg7 mi
3:44 pm73 °FSprinkles. Mostly cloudy.12 mph94%29.76 "Hg7 mi
3:37 pm75 °FRain showers. Fog.20 mph83%29.76 "Hg3 mi
3:00 pm79 °FMostly cloudy.15 mph74%29.76 "Hg15 mi
2:00 pm82 °FBroken clouds.15 mph66%29.75 "Hg15 mi
1:00 pm82 °FPartly sunny.16 mph62%29.76 "Hg15 mi
12:00 pm81 °FPartly sunny.8 mph70%29.78 "Hg15 mi
11:00 am79 °FPartly sunny.8 mph70%29.80 "Hg12 mi
10:00 am73 °FPartly sunny.10 mph78%29.80 "Hg15 mi
9:00 am68 °FPartly sunny.7 mph88%29.83 "Hg15 mi
8:00 am68 °FPartly sunny.8 mph83%29.81 "Hg15 mi
7:00 am63 °FBroken clouds.6 mph94%29.83 "Hg15 mi
6:00 am61 °FBroken clouds.8 mph94%29.84 "Hg15 mi
5:00 am63 °FPassing clouds.9 mph94%29.84 "Hg15 mi
4:23 am63 °FPassing clouds.8 mph88%29.85 "Hg15 mi
4:00 am63 °FSprinkles. Overcast.10 mph88%29.86 "Hg12 mi
3:00 am63 °FSprinkles. Mostly cloudy.8 mph88%29.89 "Hg12 mi
2:00 am68 °FSprinkles. Overcast.15 mph69%29.90 "Hg12 mi
Weather by CustomWeather, © 2019

See weather overview